Location: Unspecified
(33.6682°S, 0.0000°E)
Time: 17:55:24
(UTC+00:00)

Courier 1B - Pass Details

Date: 20 June 2019
Orbit: 962 x 1209 km, 28.3° (Epoch: 23 August)

Event Time Altitude Azimuth Distance (km) Brightness Sun altitude
Rises 04:54:51 0° 330° (NNW) 3,951 10.5 -26.1°
Reaches altitude 10° 04:58:47 10° 349° (N) 2,946 10.0 -25.3°
Maximum altitude 05:03:09 17° 27° (NNE) 2,409 10.0 -24.4°
Drops below altitude 10° 05:07:23 10° 65° (ENE) 2,842 11.0 -23.5°
Sets 05:11:04 0° 84° (E) 3,753 12.0 -22.8°
